Tracking 30995 objects as of 5-Jul-2025
HD Live streaming from Space Station
objects crossing your sky now

STARLINK-32039

Track STARLINK-32039 now!
10-day predictions
STARLINK-32039 is classified as:


NORAD ID: 60604
Int'l Code: 2024-150X
Perigee: 481.6 km
Apogee: 483.2 km
Inclination: 53.2 °
Period: 94.1 minutes
Semi major axis: 6853 km
RCS: Unknown
Launch date: August 20, 2024
Source: United States (US)
Launch site: AIR FORCE EASTERN TEST RANGE (AFETR)
Your satellite tracking list
Your tracking list is empty




NASA's NSSDC Master Catalog

Two Line Element Set (TLE):
1 60604U 24150X   25186.54511786  .00000171  00000-0  17900-4 0  9997
2 60604  53.1608  17.7450 0001144  80.6328 279.4802 15.30194864 50167
Source of the keplerian elements: AFSPC